METEOR 1-10 DEB

Satellite information

Favourite Embed

Satellite Type and Status

DEBRISIN ORBIT

Key statistics

Satellite METEOR 1-10 DEB at a glance.

Uptime

19708

Days in orbit

Revolutions

≈ 14.8

Per day

Orbit

LEO

Low Earth Orbit

Inclination

81.2

Latest

Satellite identification and parameters

Extended collection of information and parameters for METEOR 1-10 DEB.

Object identification

Identified? True

Debris? True

Object name: METEOR 1-10 DEB

International designator: 1971-120C

Object number (NORAD): 8826

Object ID (CCSDS): 8826

Country: COMMONWEALTH OF INDEPENDENT STATES (CIS)

Current information (Y/N): Y

RCS size: MEDIUM

Orbital parameters

Period: 97.096 minutes

Inclination: 81.2282 deg

SMA: 6997.806 km

Apoapsis: 629.495 km

Periapsis: 609.847 km

RAAN: 145.4038 deg

Eccentricy: 0.00140389

Argument of periapsis: 329.864 deg

Mean anomaly: 30.1761 deg

Mean motion: 14.83064064 rev/day

Mean motion (dot): 0.00005881 rev/day2

B* drag term: 0.00071922109 1/REarth

Two-line elements (TLE)

Creation date: Dec. 12, 2025, 10:14 a.m.

Reference frame: TEME

Reference center: EARTH

Epoch: Dec. 12, 2025, 4:34 a.m. UTC

TLE line 0: 0 METEOR 1-10 DEB

TLE line 1: 1 08826U 71120C 25346.19034602 .00005881 00000-0 71922-3 0 9996

TLE line 2: 2 08826 81.2282 145.4038 0014039 329.8640 30.1761 14.83064064822605

Live tracking on map

Real-time ground track for satellite METEOR 1-10 DEB.

In-orbit conjunctions

A list of the most updated potential collisions computed for object METEOR 1-10 DEB.

Target Orbit TCA Probability of collision Miss distance Type
CZ-6A DEB LEO 2024-12-10 11:15:04 0.0004452969 835.0 (m) DEBRIS

Associated space launch

The Meteor-1 series was the first series of Soviet meteorological satellites.

METEOR 1-10 DEB was lifted into orbit during the mission ‘Vostok 8A92M | Meteor-1 10 (18L)’, on board a Vostok 8A92M space rocket.

The launch took place on Dec. 29, 1971, 10:50 a.m. from 41/1.

For more information about the launch, click the button.

Launch to space Vostok 8A92M | Meteor-1 10 (18L)
Vostok 8A92M | Meteor-1 10 (18L)

Agency: N/A

Status: Launch Successful

Launch date: Dec. 29, 1971, 10:50 a.m. UTC

Rocket: Vostok 8A92M

Launch pad: 41/1

Location: Plesetsk Cosmodrome, Russian Federation

...

Latest news about this satellite

There are no fresh news available about this satellite. Check back as we update our databases every day.


Newsletter sign-up

Weekly statistics, charts and insights to help you stay on top of the space industry.